CAPE
35 21 13 61 49 12 45 44 64 52 74 67 45 1 3 34 28 29 33 0 14 0 0 0 0 0 0 0 0 0 0 0 0 0 0 0 0 0 0 0 0 0 0 0 0 0 0
26 37 62 39 56 1 3 35 18 24 55 4 5 0 5 15 34 16 36 1 0 0 0 0 0 0 0 0 0 0 0 0 0 0 0 0 0 0 0 0 0 0 0 0 0 0 0
29 34 53 39 68 90 82 1 1 36 31 2 0 0 0 29 53 19 26 9 0 0 0 0 0 0 0 0 0 0 0 0 0 0 0 0 0 0 0 0 0 0 0 0 0 0 0
16 42 18 34 40 67 38 31 2 0 0 2 0 1 1 2 30 14 35 1 0 0 0 0 0 0 0 0 0 0 0 0 0 0 0 0 0 0 0 0 0 0 0 0 0 0 0
4 17 16 24 66 51 53 36 30 0 0 0 0 10 22 13 34 0 0 0 0 0 0 0 0 0 0 0 0 0 0 0 0 0 0 0 0 0 0 0 0 0 0 0 0 0 0
3 2 6 17 29 59 67 41 22 24 26 0 2 36 4 0 0 0 0 0 0 0 0 0 0 0 0 0 0 0 0 0 0 0 0 0 0 0 0 0 0 0 0 0 0 0 0
11 3 7 6 9 44 31 32 19 16 20 3 0 0 0 0 0 0 0 0 0 0 0 0 0 0 0 0 0 0 0 0 0 0 0 0 0 0 0 0 0 0 0 0 0 0 0
7 3 7 7 4 15 37 22 17 4 1 0 0 0 0 0 0 0 0 0 0 0 0 0 0 0 0 0 0 0 0 0 0 0 0 0 0 0 0 0 0 0 0 0 0 0 0
5 7 7 7 4 2 0 5 0 0 0 0 0 0 0 0 0 0 0 0 0 0 0 0 0 0 0 0 0 0 0 0 0 0 0 0 0 0 0 0 0 0 0 0 0 0 0
3 2 4 3 7 5 2 0 0 0 0 0 0 0 0 0 0 0 0 0 0 0 0 0 0 0 0 0 0 0 0 0 0 0 0 0 0 0 0 0 0 0 0 0 0 0 0
0 1 0 5 0 2 0 0 0 0 0 0 0 0 0 0 0 0 0 0 0 0 0 0 0 0 0 0 0 0 0 0 0 0 0 0 0 0 0 0 0 0 0 0 0 0 0
0 0 0 0 0 0 0 0 0 0 0 0 0 0 0 0 0 0 0 0 0 0 0 0 0 0 0 0 0 0 0 0 0 0 0 0 0 0 0 0 0 0 0 0 0 0 0
0 0 0 0 0 0 0 0 0 0 0 0 0 0 0 0 0 0 0 0 0 0 0 0 0 0 0 0 0 0 0 0 0 0 0 0 0 0 0 0 0 0 0 0 0 0 0
5 0 0 0 0 0 0 0 0 0 0 0 0 0 0 0 0 0 0 0 0 0 0 0 0 0 0 0 0 0 0 0 0 0 0 0 0 0 0 0 0 0 0 0 0 0 0
2 1 0 0 0 0 0 0 0 0 0 0 0 0 0 0 0 0 0 0 0 0 0 0 0 0 0 0 0 0 0 0 0 0 0 0 0 0 0 0 0 0 0 0 0 0 0
0 0 0 0 0 0 0 0 0 0 0 0 0 0 0 0 0 0 0 0 0 0 0 0 0 0 0 0 0 0 0 0 0 0 0 0 0 0 0 0 0 0 0 0 0 0 0
0 0 0 0 0 0 0 0 0 0 0 0 0 0 0 0 0 0 0 0 0 0 0 0 0 0 0 0 0 0 0 0 0 0 0 0 0 0 0 0 0 0 0 0 0 0 0
0 0 0 0 0 0 0 0 0 0 0 0 0 0 0 0 0 0 0 0 0 0 0 0 0 0 0 0 0 0 0 0 0 0 0 0 0 0 0 0 0 0 0 0 0 0 0
0 0 0 0 0 0 0 0 0 0 0 0 0 0 0 0 0 0 0 0 0 0 0 0 0 0 0 0 0 0 0 0 0 0 0 0 0 0 0 0 0 0 0 0 0 0 0
0 0 0 0 0 0 0 0 0 0 0 0 0 0 0 0 0 0 0 0 0 0 0 0 0 0 0 0 0 0 0 0 0 0 0 0 0 0 0 0 0 0 0 0 0 0 0
0 0 0 0 0 0 0 0 0 0 0 0 0 0 0 0 0 0 0 0 0 0 0 0 0 0 0 0 0 0 0 0 0 0 0 0 0 0 0 0 0 0 0 0 0 0 0
0 0 0 0 0 0 0 0 0 0 0 0 0 0 0 0 0 0 0 0 0 0 0 0 0 0 0 0 0 0 0 0 0 0 0 0 0 0 0 0 0 0 0 0 0 0 0
2 2 1 0 0 0 0 0 0 0 0 0 0 0 0 0 0 0 0 0 0 0 0 0 0 0 0 0 0 0 0 0 0 0 0 0 0 0 0 0 0 0 0 0 0 0 0
1 2 2 1 0 0 0 0 0 0 0 0 0 0 0 0 0 0 0 0 0 0 0 0 0 0 0 0 0 0 0 0 0 0 0 0 0 0 0 0 0 0 0 0 0 0 0
0 1 1 3 3 0 0 0 0 0 0 0 0 0 0 0 0 0 0 0 0 0 0 0 0 0 0 0 0 0 0 0 0 0 0 0 0 0 0 0 0 0 0 0 0 0 0
0 1 1 1 2 4 0 0 0 0 0 0 0 0 0 0 0 0 0 0 0 0 0 0 0 0 0 0 0 0 0 0 0 0 0 0 0 0 0 0 0 0 0 0 0 0 0
0 0 1 0 1 1 4 0 0 0 0 0 0 0 0 0 0 0 0 0 0 0 0 0 0 0 0 0 0 0 0 0 0 0 0 0 1 0 0 0 0 0 0 0 0 0 0
0 0 0 0 1 6 2 5 0 0 0 0 0 0 0 0 0 0 0 0 0 0 0 0 0 0 0 0 0 0 0 0 0 0 0 0 0 0 0 0 0 0 0 0 0 0 0
0 3 0 0 0 0 8 7 5 0 0 0 0 0 0 0 0 0 0 0 0 0 0 0 0 0 0 0 0 0 0 0 0 0 0 0 0 0 0 0 0 0 0 0 0 0 0
CIN
-1 -0 -0 -0 -3 -0 -0 -2 -2 -0 -0 -3 -5 -0 -0 -0 -2 -15 -0 -0 -0 -0 -0 -0 -0 -0 -0 -0 -0 -0 -0 -0 -0 -0 -0 -0 -0 -0 -0 -0 -0 -0 -0 -0 -0 -0 -0
-0 -0 -0 -0 -1 -0 -0 -0 -1 -0 -0 -0 -0 -0 -1 -0 -0 -12 -2 -6 -0 -0 -0 -0 -0 -0 -0 -0 -0 -0 -0 -0 -0 -0 -0 -0 -0 -0 -0 -0 -0 -0 -0 -0 -0 -0 -0
-0 -0 -0 -0 -0 -25 -18 -0 -1 -0 -6 -1 -0 -0 -0 -0 -0 -8 -24 -43 -0 -0 -0 -0 -0 -0 -0 -0 -0 -0 -0 -0 -0 -0 -0 -0 -0 -0 -0 -0 -0 -0 -0 -0 -0 -0 -0
-4 -0 -0 -1 -0 -0 -0 -43 -10 -0 -0 -0 -0 -0 -0 -11 -0 -15 -7 -40 -0 -0 -0 -0 -0 -0 -0 -0 -0 -0 -0 -0 -0 -0 -0 -0 -0 -0 -0 -0 -0 -0 -0 -0 -0 -0 -0
-0 -1 -0 -0 -0 -0 -0 -0 -98 -0 -0 -0 -2 -5 -12 -11 -1 -0 -0 -0 -0 -0 -0 -0 -0 -0 -0 -0 -0 -0 -0 -0 -0 -0 -0 -0 -0 -0 -0 -0 -0 -0 -0 -0 -0 -0 -0
-0 -0 -0 -1 -0 -0 -0 -0 -0 -0 -0 -0 -39 -0 -0 -0 -0 -0 -0 -0 -0 -0 -0 -0 -0 -0 -0 -0 -0 -0 -0 -0 -0 -0 -0 -0 -0 -0 -0 -0 -0 -0 -0 -0 -0 -0 -0
-0 -0 -0 -0 -0 -0 -0 -0 -0 -0 -1 -0 -0 -0 -0 -0 -0 -0 -0 -0 -0 -0 -0 -0 -0 -0 -0 -0 -0 -0 -0 -0 -0 -0 -0 -0 -0 -0 -0 -0 -0 -0 -0 -0 -0 -0 -0
-0 -0 -0 -0 -0 -0 -0 -0 -2 -5 -0 -0 -0 -0 -0 -0 -0 -0 -0 -0 -0 -0 -0 -0 -0 -0 -0 -0 -0 -0 -0 -0 -0 -0 -0 -0 -0 -0 -0 -0 -0 -0 -0 -0 -0 -0 -0
-0 -0 -0 -0 -0 -0 -0 -21 -0 -0 -0 -0 -0 -0 -0 -0 -0 -0 -0 -0 -0 -0 -0 -0 -0 -0 -0 -0 -0 -0 -0 -0 -0 -0 -0 -0 -0 -0 -0 -0 -0 -0 -0 -0 -0 -0 -0
-0 -0 -0 -0 -0 -0 -0 -0 -0 -0 -0 -0 -0 -0 -0 -0 -0 -0 -0 -0 -0 -0 -0 -0 -0 -0 -0 -0 -0 -0 -0 -0 -0 -0 -0 -0 -0 -0 -0 -0 -0 -0 -0 -0 -0 -0 -0
-0 -0 -0 -0 -0 -0 -0 -0 -0 -0 -0 -0 -0 -0 -0 -0 -0 -0 -0 -0 -0 -0 -0 -0 -0 -0 -0 -0 -0 -0 -0 -0 -0 -0 -0 -0 -0 -0 -0 -0 -0 -0 -0 -0 -0 -0 -0
-0 -0 -0 -0 -0 -0 -0 -0 -0 -0 -0 -0 -0 -0 -0 -0 -0 -0 -0 -0 -0 -0 -0 -0 -0 -0 -0 -0 -0 -0 -0 -0 -0 -0 -0 -0 -0 -0 -0 -0 -0 -0 -0 -0 -0 -0 -0
-0 -0 -0 -0 -0 -0 -0 -0 -0 -0 -0 -0 -0 -0 -0 -0 -0 -0 -0 -0 -0 -0 -0 -0 -0 -0 -0 -0 -0 -0 -0 -0 -0 -0 -0 -0 -0 -0 -0 -0 -0 -0 -0 -0 -0 -0 -0
-0 -0 -0 -0 -0 -0 -0 -0 -0 -0 -0 -0 -0 -0 -0 -0 -0 -0 -0 -0 -0 -0 -0 -0 -0 -0 -0 -0 -0 -0 -0 -0 -0 -0 -0 -0 -0 -0 -0 -0 -0 -0 -0 -0 -0 -0 -0
-0 -0 -0 -0 -0 -0 -0 -0 -0 -0 -0 -0 -0 -0 -0 -0 -0 -0 -0 -0 -0 -0 -0 -0 -0 -0 -0 -0 -0 -0 -0 -0 -0 -0 -0 -0 -0 -0 -0 -0 -0 -0 -0 -0 -0 -0 -0
-0 -0 -0 -0 -0 -0 -0 -0 -0 -0 -0 -0 -0 -0 -0 -0 -0 -0 -0 -0 -0 -0 -0 -0 -0 -0 -0 -0 -0 -0 -0 -0 -0 -0 -0 -0 -0 -0 -0 -0 -0 -0 -0 -0 -0 -0 -0
-0 -0 -0 -0 -0 -0 -0 -0 -0 -0 -0 -0 -0 -0 -0 -0 -0 -0 -0 -0 -0 -0 -0 -0 -0 -0 -0 -0 -0 -0 -0 -0 -0 -0 -0 -0 -0 -0 -0 -0 -0 -0 -0 -0 -0 -0 -0
-0 -0 -0 -0 -0 -0 -0 -0 -0 -0 -0 -0 -0 -0 -0 -0 -0 -0 -0 -0 -0 -0 -0 -0 -0 -0 -0 -0 -0 -0 -0 -0 -0 -0 -0 -0 -0 -0 -0 -0 -0 -0 -0 -0 -0 -0 -0
-0 -0 -0 -0 -0 -0 -0 -0 -0 -0 -0 -0 -0 -0 -0 -0 -0 -0 -0 -0 -0 -0 -0 -0 -0 -0 -0 -0 -0 -0 -0 -0 -0 -0 -0 -0 -0 -0 -0 -0 -0 -0 -0 -0 -0 -0 -0
-0 -0 -0 -0 -0 -0 -0 -0 -0 -0 -0 -0 -0 -0 -0 -0 -0 -0 -0 -0 -0 -0 -0 -0 -0 -0 -0 -0 -0 -0 -0 -0 -0 -0 -0 -0 -0 -0 -0 -0 -0 -0 -0 -0 -0 -0 -0
-0 -0 -0 -0 -0 -0 -0 -0 -0 -0 -0 -0 -0 -0 -0 -0 -0 -0 -0 -0 -0 -0 -0 -0 -0 -0 -0 -0 -0 -0 -0 -0 -0 -0 -0 -0 -0 -0 -0 -0 -0 -0 -0 -0 -0 -0 -0
-0 -0 -0 -0 -0 -0 -0 -0 -0 -0 -0 -0 -0 -0 -0 -0 -0 -0 -0 -0 -0 -0 -0 -0 -0 -0 -0 -0 -0 -0 -0 -0 -0 -0 -0 -0 -0 -0 -0 -0 -0 -0 -0 -0 -0 -0 -0
-2 -2 -0 -0 -0 -0 -0 -0 -0 -0 -0 -0 -0 -0 -0 -0 -0 -0 -0 -0 -0 -0 -0 -0 -0 -0 -0 -0 -0 -0 -0 -0 -0 -0 -0 -0 -0 -0 -0 -0 -0 -0 -0 -0 -0 -0 -0
-2 -4 -2 -0 -0 -0 -0 -0 -0 -0 -0 -0 -0 -0 -0 -0 -0 -0 -0 -0 -0 -0 -0 -0 -0 -0 -0 -0 -0 -0 -0 -0 -0 -0 -0 -0 -0 -0 -0 -0 -0 -0 -0 -0 -0 -0 -0
-3 -4 -3 -5 -2 -0 -0 -0 -0 -0 -0 -0 -0 -0 -0 -0 -0 -0 -0 -0 -0 -0 -0 -0 -0 -0 -0 -0 -0 -0 -0 -0 -0 -0 -0 -0 -0 -0 -0 -0 -0 -0 -0 -0 -0 -0 -0
-0 -3 -4 -6 -3 -1 -0 -0 -0 -0 -0 -0 -0 -0 -0 -0 -0 -0 -0 -0 -0 -0 -0 -0 -0 -0 -0 -0 -0 -0 -0 -0 -0 -0 -0 -0 -0 -0 -0 -0 -0 -0 -0 -0 -0 -0 -0
-0 -0 -3 -6 -4 -6 -1 -0 -0 -0 -0 -0 -0 -0 -0 -0 -0 -0 -0 -0 -0 -0 -0 -0 -0 -0 -0 -0 -0 -0 -0 -0 -0 -0 -0 -0 -0 -0 -0 -0 -0 -0 -0 -0 -0 -0 -0
-0 -0 -0 -0 -3 -9 -11 -1 -0 -0 -0 -0 -0 -0 -0 -0 -0 -0 -0 -0 -0 -0 -0 -0 -0 -0 -0 -0 -0 -0 -0 -0 -0 -0 -0 -0 -0 -0 -0 -0 -0 -0 -0 -0 -0 -0 -0
-0 -2 -2 -0 -0 -0 -13 -11 -4 -0 -0 -0 -0 -0 -0 -0 -0 -0 -0 -0 -0 -0 -0 -0 -0 -0 -0 -0 -0 -0 -0 -0 -0 -0 -0 -0 -0 -0 -0 -0 -0 -0 -0 -0 -0 -0 -0
Wind_Speed
47 43 36 25 18 18 16 13 16 13 10 12 17 9 2 16 11 9 9 17 15 13 13 12 11 13 10 6 10 15 15 15 13 12 12 13 14 16 16 16 19 21 21 23 24 25 25
44 42 34 29 16 32 20 13 7 8 10 11 11 8 3 14 20 12 9 13 13 13 12 12 12 11 8 6 14 12 13 13 14 13 14 14 15 18 17 19 20 22 25 27 25 24 26
43 43 38 39 36 28 24 14 6 9 11 13 11 6 1 21 13 12 16 16 13 11 11 8 7 1 2 6 12 14 12 12 14 14 13 15 17 16 18 19 21 23 27 27 25 24 27
43 44 43 40 40 39 22 18 2 3 13 19 13 4 3 8 27 22 27 16 16 12 10 8 7 5 7 12 12 11 13 13 14 14 13 15 16 15 18 19 21 24 24 29 25 25 27
43 42 43 38 39 41 17 16 10 15 4 18 9 7 9 12 20 30 27 17 20 16 12 12 8 8 9 13 11 14 14 14 14 14 15 15 15 16 19 22 24 25 30 31 32 26 29
42 40 41 39 38 38 19 16 14 11 21 9 10 14 19 24 28 28 16 25 17 14 14 14 11 11 13 13 14 14 15 15 14 16 16 17 16 18 21 23 27 28 29 30 33 31 29
39 38 37 38 37 38 32 22 17 18 18 12 16 17 15 10 15 21 19 20 19 11 7 9 12 5 12 15 13 13 14 16 15 15 14 17 16 18 19 19 19 21 26 30 30 26 37
40 36 36 35 33 32 35 32 23 27 22 16 15 11 10 10 12 15 15 20 19 22 5 8 10 6 10 12 10 12 13 12 13 13 14 14 16 16 17 18 19 21 26 28 27 29 36
38 37 35 34 33 27 29 33 34 30 22 18 15 12 11 12 12 16 25 23 17 15 4 3 5 8 8 8 11 13 13 13 14 14 16 15 15 15 18 20 22 23 23 25 28 31 23
34 36 34 33 32 28 26 28 30 33 27 21 15 12 10 12 15 19 21 19 13 15 7 10 12 12 10 13 14 15 15 15 15 15 15 16 15 17 19 20 22 22 20 23 27 27 24
30 30 33 32 30 28 26 23 24 24 24 22 15 10 9 8 12 10 17 13 14 18 15 18 19 12 10 16 15 17 15 16 16 16 17 16 16 17 19 19 20 16 18 18 16 8 9
28 25 26 28 28 24 21 21 19 17 15 15 15 11 10 9 8 11 11 13 16 14 16 16 11 13 12 11 15 16 17 17 17 17 17 16 6 6 14 11 11 11 13 12 10 9 15
26 24 23 22 22 22 19 15 13 13 13 10 10 12 13 12 13 11 12 11 15 7 10 18 18 16 11 11 9 2 1 7 3 11 12 13 14 14 13 11 11 12 11 13 11 8 7
26 22 21 19 17 15 15 11 7 5 7 8 11 14 15 13 12 12 13 14 13 17 19 19 17 14 15 14 14 13 13 13 12 12 12 12 13 14 14 13 10 9 14 15 10 14 11
25 20 19 17 15 11 7 7 6 4 3 7 11 14 14 11 12 13 16 19 24 22 20 19 16 16 16 14 14 13 14 14 13 12 11 11 12 15 13 14 15 8 15 15 18 10 7
27 22 13 14 14 12 7 3 1 1 3 8 16 15 14 11 11 13 18 21 20 19 19 16 17 16 15 14 14 12 14 15 14 13 13 11 10 12 13 11 11 12 16 13 20 16 10
28 26 16 7 2 12 7 2 1 3 5 13 15 16 14 11 12 14 20 18 18 18 16 14 14 15 15 15 14 14 15 15 15 14 12 11 13 12 12 13 13 14 11 12 11 12 11
26 28 31 24 16 13 5 7 6 7 7 13 15 17 13 13 16 16 19 19 17 17 15 14 14 14 14 12 13 14 14 13 15 13 10 12 11 9 10 10 13 12 11 11 10 10 10
26 27 27 24 24 20 19 17 16 14 9 12 14 14 14 13 16 16 16 16 15 17 15 14 14 14 12 12 12 12 12 14 14 12 11 11 10 6 9 11 10 8 8 8 8 7 6
24 25 27 28 25 24 22 22 20 19 18 12 14 14 14 13 15 15 15 15 15 15 14 14 13 13 12 11 12 11 10 12 11 11 11 10 9 8 7 6 7 5 4 5 7 5 5
26 24 27 28 29 27 24 23 23 23 21 16 12 14 14 14 14 14 14 13 13 12 12 12 11 12 11 10 9 10 9 9 9 10 11 11 4 4 9 13 14 17 16 12 13 12 7
24 25 24 28 28 28 27 25 24 25 24 18 14 12 13 15 16 15 14 13 11 11 10 11 11 9 9 8 7 6 7 8 4 8 9 10 5 3 16 10 3 11 13 11 12 14 16
25 26 26 28 27 28 27 27 26 25 23 19 19 18 16 9 8 9 10 11 9 10 4 6 5 10 13 12 5 3 3 4 3 10 7 12 12 21 4 14 26 7 6 3 3 2 7
24 26 28 28 27 26 27 27 26 25 23 20 20 20 19 8 8 6 9 12 9 2 9 11 12 2 10 21 27 10 10 14 11 14 4 4 3 4 12 12 3 13 19 15 6 7 5
24 26 27 29 28 26 25 26 26 25 24 22 22 21 21 21 20 29 19 14 17 16 5 4 5 14 18 24 5 3 3 1 6 11 15 11 6 0 3 4 16 10 7 4 1 9 6
25 28 28 29 29 28 26 23 24 24 23 22 22 21 21 23 20 23 23 22 19 19 24 18 20 17 18 18 16 11 9 11 8 12 20 5 4 1 10 7 5 8 7 22 4 4 8
27 29 30 29 31 31 30 24 20 20 20 19 22 20 21 22 24 22 21 22 21 21 22 22 20 20 18 13 11 12 12 17 11 12 12 10 6 7 6 9 7 7 6 16 7 5 9
29 30 32 33 32 32 32 30 19 16 15 17 21 18 20 24 30 28 25 22 22 21 21 22 24 20 15 14 14 16 13 12 17 16 15 10 11 12 10 14 16 14 13 8 14 31 26
30 30 33 35 36 35 33 32 31 19 16 15 22 19 18 21 26 29 28 26 23 22 23 21 20 20 15 15 17 20 20 20 18 21 18 17 15 19 13 17 24 16 22 13 23 31 27
Wind_Direction
51 56 60 61 6 13 18 29 34 40 53 41 37 28 131 176 153 146 127 158 162 171 181 199 233 253 251 261 278 290 303 314 312 317 310 302 302 298 302 308 306 303 307 308 309 312 314
54 55 58 65 54 19 9 14 36 32 32 24 23 13 156 168 170 140 81 146 170 173 185 218 245 250 250 245 267 296 312 316 324 319 315 314 306 308 306 306 305 308 306 305 310 314 315
54 54 58 64 66 14 13 3 17 27 29 21 14 14 145 158 162 137 153 146 164 170 189 202 247 132 18 264 277 285 312 324 321 323 319 319 315 313 310 310 312 310 306 310 314 316 315
58 56 58 63 63 63 10 11 0 169 25 29 17 42 147 164 160 159 156 168 164 171 198 230 245 253 252 259 281 303 304 310 324 324 329 325 327 331 319 319 316 310 312 305 315 318 318
58 58 58 63 64 67 37 35 61 137 68 37 48 65 141 138 146 152 157 164 162 175 196 211 233 232 245 264 282 293 307 306 312 323 330 331 336 325 321 310 309 313 305 307 310 321 319
59 61 59 62 67 73 53 46 56 79 126 112 92 69 107 137 144 146 127 155 154 173 179 183 194 206 218 230 252 282 299 306 316 316 322 327 329 322 321 316 304 307 309 312 311 320 320
61 62 64 64 70 73 79 89 91 103 104 97 81 85 99 121 154 148 157 161 161 154 105 153 167 162 200 198 232 263 275 275 296 317 321 331 331 324 329 333 331 327 320 316 319 327 320
60 65 66 68 72 77 79 87 104 112 113 117 130 108 100 113 145 161 159 154 158 156 92 25 21 353 201 220 308 297 281 330 339 346 344 342 338 349 347 345 341 335 327 325 329 330 325
62 64 68 71 74 79 82 86 97 110 112 128 143 146 153 148 152 141 141 148 167 172 199 233 295 314 239 273 330 309 312 325 352 353 350 350 351 353 347 342 337 337 336 334 330 335 344
65 66 69 73 77 81 86 92 99 105 112 122 137 157 174 182 158 153 141 145 183 171 350 309 315 327 301 340 344 336 330 5 357 358 355 354 1 352 349 346 346 340 354 345 340 344 351
68 71 71 75 79 84 88 96 104 109 115 124 140 163 180 193 197 197 154 184 201 156 1 61 36 256 240 23 17 353 324 357 1 357 354 352 355 353 350 358 0 355 269 266 251 167 243
70 74 76 77 80 85 90 95 103 114 125 133 141 165 183 196 230 206 217 200 153 13 53 29 253 199 218 299 338 1 353 359 2 353 359 4 353 350 194 183 171 224 252 220 142 118 265
69 74 77 80 83 85 91 97 106 115 126 148 166 175 173 189 189 212 206 263 10 79 182 164 148 151 209 306 316 224 213 252 289 314 257 196 184 143 159 175 179 256 269 257 240 259 205
65 73 78 82 85 88 89 96 107 129 147 167 173 172 174 180 196 204 202 188 171 165 157 156 162 166 153 155 158 167 166 160 166 164 183 192 176 144 122 101 156 189 62 312 230 268 247
61 70 76 82 86 89 89 90 98 129 168 190 182 171 172 200 202 195 166 142 140 148 152 153 157 152 149 149 153 156 151 151 148 156 163 204 174 64 94 77 51 147 60 56 27 84 195
53 62 78 81 84 90 96 99 82 164 192 170 144 147 152 177 182 167 145 140 146 154 152 154 144 148 141 145 147 161 150 151 142 144 146 172 172 153 107 119 135 81 45 61 19 291 217
45 50 62 314 83 91 104 114 291 281 259 151 143 144 153 175 171 156 139 147 154 158 158 159 154 149 149 145 147 148 148 150 148 142 149 155 143 153 139 137 122 101 104 101 103 97 117
42 41 6 337 318 310 283 289 294 295 274 151 144 137 162 163 151 153 142 148 161 159 166 163 160 156 153 156 148 146 144 145 126 124 142 139 152 153 160 156 133 130 139 128 132 146 148
38 34 37 331 333 322 320 315 310 306 284 162 150 156 164 166 144 147 157 157 171 154 160 158 158 155 161 151 147 146 134 103 96 104 127 114 138 186 143 129 120 130 119 136 103 95 166
34 35 28 13 331 330 323 319 315 312 309 156 174 154 175 183 160 154 153 157 160 169 172 164 157 145 150 151 137 149 138 100 103 90 81 88 140 146 159 148 93 192 175 141 170 177 188
19 29 20 16 0 334 324 318 316 316 310 10 266 171 178 174 181 171 169 158 154 163 157 143 161 154 126 148 145 138 139 114 95 71 61 65 137 164 223 236 242 245 239 225 219 219 220
12 13 19 1 3 341 333 321 314 317 315 338 44 65 180 198 207 196 180 175 165 163 144 172 172 109 143 153 121 138 73 55 99 59 48 40 48 25 256 245 179 246 238 225 223 224 231
356 359 4 351 352 350 332 332 323 318 324 338 331 335 355 65 77 149 161 164 160 21 75 59 130 184 209 213 350 348 357 350 350 6 16 4 8 355 237 356 276 257 54 75 23 355 220
351 350 346 342 343 347 345 334 330 326 331 331 335 333 335 46 30 52 18 356 191 47 201 353 351 13 352 334 319 296 248 242 240 229 283 216 187 199 247 264 214 11 351 353 343 325 256
344 339 339 335 335 342 346 341 330 331 327 324 321 325 324 327 326 286 328 335 333 332 249 263 319 334 332 326 326 315 350 53 193 206 210 198 198 294 218 240 258 264 73 72 122 249 226
334 327 329 330 330 331 332 341 340 333 333 325 321 323 318 322 328 321 324 326 333 333 321 327 328 334 334 331 337 346 349 355 11 4 341 32 171 216 3 350 351 26 33 333 58 232 171
319 318 318 322 313 318 318 333 342 343 344 341 321 324 317 319 317 319 322 325 327 325 326 327 331 328 328 334 330 328 328 331 340 345 350 354 347 240 267 328 316 299 334 346 26 27 20
310 311 306 306 311 312 311 315 335 338 342 338 333 331 319 313 305 306 309 314 316 319 320 322 323 325 331 331 332 331 330 331 329 327 333 330 334 330 328 327 328 345 359 347 344 319 331
305 307 304 304 305 308 311 309 308 320 323 330 324 328 326 317 314 308 306 304 303 306 310 311 313 322 322 327 327 327 324 323 317 315 315 315 308 317 301 311 320 317 316 310 321 318 323